#timestamp,LO_Frequency,Hit,StdDev 
1544338815.1,286047002.3,P
1544338816.0,286047002.3,P
1544338835.8,286047002.2,Y
1544338855.7,286046999.8,P
1544338875.5,286046999.9,N
1544338895.3,286046998.7,N
1544338915.2,286046998.7,N
1544338935.0,286046998.6,N
1544338935.9,286046998.6,N
1544338955.8,286046995.7,Y
1544338975.6,286046995.1,P
1544338995.4,286046996.6,N
1544339015.3,286046995.9,N
1544339035.1,286046996.6,N
1544339055.8,286046993.3,Y
1544339075.7,286047000.9,P
1544339095.5,286047000.2,N
1544339115.4,286046999.1,N
1544339135.2,286046993.7,Y
1544339155.0,286046995.9,P
1544339155.9,286046995.9,N
1544339175.8,286046996.1,N
1544339195.6,286046999.5,N
1544339215.5,286046994.9,Y
1544339235.3,286047001.1,P
1544339255.1,286047000.8,N
1544339275.9,286047000.0,N
1544339295.7,286046996.5,N
1544339315.5,286046998.7,N
1544339335.4,286046996.9,N
1544339355.2,286047002.7,N
1544339375.0,286047001.7,N
1544339376.0,286047001.7,N
1544339395.8,286047003.2,N
1544339415.6,286047003.8,N
1544339435.5,286046998.9,N
1544339455.3,286046995.3,N
1544339475.1,286046997.6,N
1544339495.9,286046997.7,N
1544339515.7,286046996.1,N
1544339535.5,286046995.4,N
1544339555.4,286046995.0,N
1544339575.2,286046996.7,N
1544339595.1,286046997.8,N
1544339596.0,286046997.8,N
1544339615.8,286046999.3,N
1544339635.6,286046999.7,N
1544339655.5,286047001.2,N
1544339675.3,286046999.6,N
1544339695.1,286046997.7,N
1544339715.9,286046996.3,N
1544339735.7,286046995.5,N
1544339755.6,286046999.5,N
1544339775.4,286046998.4,N
1544339795.2,286047002.0,N
1544339815.1,286047002.6,N
1544339816.0,286047002.6,N
1544339835.8,286047000.3,N
1544339855.6,286047002.3,N
1544339875.5,286047002.8,N
1544339895.3,286047003.5,N
1544339915.2,286047001.7,N
1544339935.9,286047000.3,N
1544339955.7,286046994.3,N
1544339975.6,286046991.5,Y
1544339995.4,286046992.9,P
1544340015.2,286046994.7,N
1544340035.1,286046994.8,N
1544340036.0,286046994.8,N
1544340055.8,286046990.4,Y
1544340075.7,286046986.3,P
1544340095.5,286046996.7,N
1544340115.3,286046999.3,N
1544340135.2,286046998.2,N
1544340155.0,286047002.8,N
1544340155.9,286047002.8,N
1544340175.8,286047003.5,N
1544340195.6,286047004.0,N
1544340215.4,286047000.1,N
1544340235.3,286046999.8,N
1544340255.1,286047004.3,N
1544340275.8,286047001.4,N
1544340295.7,286047005.5,N
1544340315.5,286047003.4,N
1544340335.4,286047004.1,N
1544340355.2,286047003.2,N
1544340375.0,286047001.9,N
1544340375.9,286047001.9,N
1544340395.8,286047005.6,N
1544340415.6,286047005.7,N
1544340435.4,286047003.5,N
1544340455.3,286046998.8,N
1544340475.1,286046992.2,N
1544340495.8,286046989.0,N
1544340515.7,286046988.3,N
1544340535.5,286046988.9,N
1544340555.4,286046987.4,N
1544340575.2,286046990.6,N
1544340595.0,286046992.7,N
1544340595.9,286046992.7,N
1544340615.8,286046992.3,N
1544340635.6,286046991.9,N
1544340655.4,286046995.8,N
1544340675.3,286046997.6,N
1544340695.1,286046996.9,N
1544340715.9,286046995.0,N
1544340735.7,286046997.1,N
1544340755.5,286046996.8,N
1544340775.4,286046995.0,N
1544340795.2,286046999.1,N
1544340815.0,286046998.6,N
1544340815.9,286046998.6,N
1544340835.8,286046999.6,N
1544340855.6,286046994.4,N
1544340875.5,286046990.6,N
1544340895.3,286046987.3,N
1544340915.1,286046987.4,N
1544340935.9,286046991.3,N
1544340955.7,286046990.5,N
1544340975.5,286046989.4,N
1544340995.4,286046988.9,N
1544341015.2,286046992.1,N
1544341035.1,286046992.5,N
1544341036.0,286046992.5,N
1544341055.8,286046988.8,Y
1544341075.6,286046993.6,P
1544341095.5,286046994.8,P
1544341115.3,286046990.4,P
1544341135.2,286046994.3,Y
1544341155.9,286047001.5,P
1544341175.7,286047002.5,N
1544341195.6,286047003.9,N
1544341215.4,286047003.0,N
1544341235.2,286047007.4,N
1544341255.1,286047007.4,N
1544341256.0,286047007.4,N
1544341275.8,286047008.0,N
1544341295.7,286047010.7,N
1544341315.5,286047009.2,N
1544341335.3,286047007.4,N
1544341355.2,286047008.3,N
1544341375.9,286047012.4,N
1544341395.7,286047013.8,N
1544341415.6,286047014.3,N
1544341435.4,286047016.8,Y
1544341455.3,286047009.1,P
1544341475.1,286047008.9,P
1544341476.0,286047008.9,P
1544341495.8,286047008.4,Y
1544341515.7,286047000.4,P
1544341535.5,286047000.7,N
1544341555.3,286046999.0,N
1544341575.2,286047000.3,N
1544341595.0,286046999.4,N
1544341595.9,286046999.4,N
1544341615.8,286046996.5,N
1544341635.6,286047000.4,N
1544341655.4,286046998.8,N
1544341675.3,286046998.3,N
1544341695.1,286047000.6,N
1544341715.8,286047000.0,N
1544341735.7,286047001.9,N
1544341755.5,286047001.9,N
1544341775.4,286047001.3,N
1544341795.2,286047001.6,N
1544341815.0,286046996.6,N
1544341815.9,286046996.6,N
1544341835.8,286046999.1,N
1544341855.6,286047000.4,N
1544341875.4,286046999.9,N
1544341895.3,286047000.0,N
1544341915.1,286047002.0,N
1544341935.9,286047002.0,N
1544341955.7,286047002.0,N
1544341975.5,286047002.7,N
1544341995.4,286047003.7,N
1544342015.2,286047002.4,N
1544342035.0,286047004.3,N
1544342035.9,286047004.3,N
1544342055.8,286047003.3,N
1544342075.6,286047004.4,N
1544342095.5,286047005.8,N
1544342115.3,286047005.7,N
1544342135.1,286047007.6,Y
1544342155.9,286047005.9,P
1544342175.7,286047002.6,N
1544342195.5,286047002.6,N
1544342215.4,286047001.4,N
1544342235.2,286047002.4,N
1544342255.1,286046998.3,N
1544342256.0,286047011.9,Y
1544342275.8,286046997.7,P
1544342295.6,286046996.5,N
1544342315.5,286046999.6,N
1544342335.3,286046998.7,N
1544342355.1,286047001.0,N
1544342375.9,286047002.1,N
1544342395.7,286047005.9,N
